H1 CPF 2 NER 2022 3 6 9 065 01 glonass143 H2 2007501 9143 46805 2022 3 6 0 0 0 2022 3 9 23 45 0 900 1 1 0 0 0 1 H9 10 0 59644 0.00000 0 -9277018.402 8649351.635 22138658.963 10 0 59644 900.00000 0 -9756676.661 5918382.805 22819770.319 10 0 59644 1800.00000 0 -10448525.382 3174867.838 23058032.197 10 0 59644 2700.00000 0 -11339227.982 487325.074 22848786.117 10 0 59644 3600.00000 0 -12403645.885 -2079094.756 22196047.591 10 0 59644 4500.00000 0 -13605822.010 -4465077.788 21112432.203 10 0 59644 5400.00000 0 -14900436.612 -6619369.096 19618916.255 10 0 59644 6300.00000 0 -16234675.404 -8500656.165 17744436.013 10 0 59644 7200.00000 0 -17550432.441 -10079036.107 15525332.634 10 0 59644 8100.00000 0 -18786756.047 -11337006.279 13004652.762 10 0 59644 9000.00000 0 -19882435.528 -12269937.629 10231317.600 10 0 59644 9900.00000 0 -20778620.077 -12886011.542 7259176.069 10 0 59644 10800.00000 0 -21421359.565 -13205623.541 4145960.058 10 0 59644 11700.00000 0 -21763959.793 -13260279.584 952161.939 10 0 59644 12600.00000 0 -21769052.292 -13091032.098 -2260143.587 10 0 59644 13500.00000 0 -21410290.558 -12746522.538 -5428510.010 10 0 59644 14400.00000 0 -20673600.289 -12280713.947 -8491337.807 10 0 59644 15300.00000 0 -19557929.934 -11750410.172 -11389077.038 10 0 59644 16200.00000 0 -18075469.042 -11212667.520 -14065389.723 10 0 59644 17100.00000 0 -16251324.328 -10722209.060 -16468248.867 10 0 59644 18000.00000 0 -14122666.405 -10328951.611 -18550952.275 10 0 59644 18900.00000 0 -11737382.293 -10075750.485 -20273031.325 10 0 59644 19800.00000 0 -9152289.613 -9996457.656 -21601037.090 10 0 59644 20700.00000 0 -6430986.678 -10114375.602 -22509188.687 10 0 59644 21600.00000 0 -3641427.751 -10441172.189 -22979871.691 10 0 59644 22500.00000 0 -853323.955 -10976302.464 -23003977.325 10 0 59644 23400.00000 0 1864522.365 -11706961.759 -22581076.255 10 0 59644 24300.00000 0 4446839.721 -12608572.200 -21719423.954 10 0 59644 25200.00000 0 6834357.672 -13645782.272 -20435797.750 10 0 59644 26100.00000 0 8976023.255 -14773937.557 -18755168.818 10 0 59644 27000.00000 0 10830872.449 -15940960.968 -16710215.462 10 0 59644 27900.00000 0 12369479.889 -17089563.578 -14340687.008 10 0 59644 28800.00000 0 13574927.541 -18159693.146 -11692630.544 10 0 59644 29700.00000 0 14443253.216 -19091117.396 -8817495.412 10 0 59644 30600.00000 0 14983361.571 -19826033.281 -5771132.725 10 0 59644 31500.00000 0 15216402.635 -20311592.243 -2612709.492 10 0 59644 32400.00000 0 15174645.351 -20502234.962 596441.486 10 0 59644 33300.00000 0 14899894.761 -20361736.965 3794013.398 10 0 59644 34200.00000 0 14441520.569 -19864878.657 6917935.386 10 0 59644 35100.00000 0 13854181.144 -18998669.121 9907577.015 10 0 59644 36000.00000 0 13195339.631 -17763071.749 12704923.697 10 0 59644 36900.00000 0 12522677.449 -16171200.782 15255700.165 10 0 59644 37800.00000 0 11891514.532 -14248979.918 17510420.378 10 0 59644 38700.00000 0 11352345.110 -12034276.605 19425343.798 10 0 59644 39600.00000 0 10948592.829 -9575547.479 20963319.902 10 0 59644 40500.00000 0 10714679.534 -6930050.606 22094505.146 10 0 59644 41400.00000 0 10674488.825 -4161697.962 22796939.047 10 0 59644 42300.00000 0 10840288.902 -1338636.543 23056968.699 10 0 59644 43200.00000 0 11212160.009 1469342.566 22869513.866 10 0 59644 44100.00000 0 11777950.772 4193460.709 22238167.662 10 0 59644 45000.00000 0 12513765.675 6768564.532 21175130.746 10 0 59644 45900.00000 0 13384963.801 9135587.792 19700979.969 10 0 59644 46800.00000 0 14347627.591 11243760.772 17844275.358 10 0 59644 47700.00000 0 15350440.596 13052476.180 15641012.359 10 0 59644 48600.00000 0 16336895.916 14532734.535 13133929.198 10 0 59644 49500.00000 0 17247742.883 15668109.362 10371682.014 10 0 59644 50400.00000 0 18023569.178 16455192.348 7407903.265 10 0 59644 51300.00000 0 18607409.483 16903500.352 4300161.282 10 0 59644 52200.00000 0 18947270.352 17034848.763 1108841.077 10 0 59644 53100.00000 0 18998464.088 16882218.096 -2104031.630 10 0 59644 54000.00000 0 18725652.306 16488162.296 -5275999.895 10 0 59644 54900.00000 0 18104511.913 15902826.604 -8345394.507 10 0 59644 55800.00000 0 17122952.143 15181659.424 -11252537.906 10 0 59644 56700.00000 0 15781830.238 14382915.644 -13940909.075 10 0 59644 57600.00000 0 14095134.550 13565057.606 -16358246.165 10 0 59644 58500.00000 0 12089626.444 12784164.155 -18457564.956 10 0 59644 59400.00000 0 9803955.108 12091457.658 -20198073.204 10 0 59644 60300.00000 0 7287281.587 11531053.666 -21545963.132 10 0 59644 61200.00000 0 4597468.944 11138028.305 -22475066.836 10 0 59644 62100.00000 0 1798913.449 10936884.793 -22967362.261 10 0 59644 63000.00000 0 -1039893.418 10940483.537 -23013320.338 10 0 59644 63900.00000 0 -3848971.182 11149480.633 -22612086.931 10 0 59644 64800.00000 0 -6559517.098 11552298.127 -21771496.441 10 0 59644 65700.00000 0 -9106523.224 12125627.047 -20507917.012 10 0 59644 66600.00000 0 -11431235.752 12835441.817 -18845930.459 10 0 59644 67500.00000 0 -13483355.207 13638483.214 -16817853.116 10 0 59644 68400.00000 0 -15222886.903 14484147.317 -14463106.774 10 0 59644 69300.00000 0 -16621565.495 15316700.772 -11827451.806 10 0 59644 70200.00000 0 -17663795.368 16077728.966 -8962097.245 10 0 59644 71100.00000 0 -18347068.706 16708713.736 -5922704.983 10 0 59644 72000.00000 0 -18681844.945 17153631.741 -2768307.534 10 0 59644 72900.00000 0 -18690897.907 17361463.642 439839.484 10 0 59644 73800.00000 0 -18408159.256 17288507.915 3639447.711 10 0 59644 74700.00000 0 -17877107.957 16900401.385 6768405.743 10 0 59644 75600.00000 0 -17148774.564 16173760.816 9765984.474 10 0 59644 76500.00000 0 -16279445.111 15097375.960 12574014.548 10 0 59644 77400.00000 0 -15328161.917 13672903.280 15138012.903 10 0 59644 78300.00000 0 -14354126.896 11915030.535 17408236.766 10 0 59644 79200.00000 0 -13414116.765 9851104.535 19340644.920 10 0 59644 80100.00000 0 -12560018.833 7520236.783 20897748.041 10 0 59644 81000.00000 0 -11836590.717 4971923.338 22049332.166 10 0 59644 81900.00000 0 -11279537.764 2264235.299 22773041.884 10 0 59644 82800.00000 0 -10913988.558 -538345.882 23054812.402 10 0 59644 83700.00000 0 -10753432.235 -3367359.539 22889142.510 10 0 59644 84600.00000 0 -10799161.971 -6152963.665 22279203.315 10 0 59644 85500.00000 0 -11040248.046 -8826592.762 21236780.521 10 0 59645 0.00000 0 -11454041.674 -11323566.240 19782051.206 10 0 59645 900.00000 0 -12007189.012 -13585541.304 17943197.960 10 0 59645 1800.00000 0 -12657112.516 -15562705.747 15755869.258 10 0 59645 2700.00000 0 -13353898.464 -17215624.549 13262493.102 10 0 59645 3600.00000 0 -14042510.999 -18516660.360 10511458.380 10 0 59645 4500.00000 0 -14665239.691 -19450910.293 7556178.571 10 0 59645 5400.00000 0 -15164277.334 -20016619.973 4454055.670 10 0 59645 6300.00000 0 -15484318.801 -20225057.843 1265364.336 10 0 59645 7200.00000 0 -15575070.619 -20099855.404 -1947921.844 10 0 59645 8100.00000 0 -15393564.415 -19675841.649 -5123338.768 10 0 59645 9000.00000 0 -14906175.457 -18997421.382 -8199150.877 10 0 59645 9900.00000 0 -14090259.948 -18116566.451 -11115556.360 10 0 59645 10800.00000 0 -12935340.776 -17090505.318 -13815854.477 10 0 59645 11700.00000 0 -11443790.517 -15979209.134 -16247551.704 10 0 59645 12600.00000 0 -9630981.848 -14842780.973 -18363384.733 10 0 59645 13500.00000 0 -7524897.968 -13738858.781 -20122240.273 10 0 59645 14400.00000 0 -5165218.363 -12720141.754 -21489953.810 10 0 59645 15300.00000 0 -2601917.358 -11832144.450 -22439971.976 10 0 59645 16200.00000 0 106566.817 -11111272.985 -22953866.028 10 0 59645 17100.00000 0 2895516.843 -10583303.945 -23021686.921 10 0 59645 18000.00000 0 5696384.635 -10262329.511 -22642155.438 10 0 59645 18900.00000 0 8439402.007 -10150212.574 -21822684.071 10 0 59645 19800.00000 0 11056245.815 -10236574.152 -20579230.445 10 0 59645 20700.00000 0 13482647.367 -10499313.063 -18935985.234 10 0 59645 21600.00000 0 15660838.351 -10905635.425 -16924900.614 10 0 59645 22500.00000 0 17541732.246 -11413550.168 -14585068.265 10 0 59645 23400.00000 0 19086751.099 -11973767.144 -11961958.918 10 0 59645 24300.00000 0 20269222.384 -12531917.436 -9106538.042 10 0 59645 25200.00000 0 21075288.534 -13031001.852 -6074274.778 10 0 59645 26100.00000 0 21504292.053 -13413963.942 -2924063.441 10 0 59645 27000.00000 0 21568621.156 -13626278.519 282921.320 10 0 59645 27900.00000 0 21293023.433 -13618446.004 3484413.328 10 0 59645 28800.00000 0 20713417.366 -13348286.856 6618264.178 10 0 59645 29700.00000 0 19875252.586 -12782938.777 9623649.341 10 0 59645 30600.00000 0 18831488.611 -11900471.934 12442247.524 10 0 59645 31500.00000 0 17640277.650 -10691053.555 15019370.241 10 0 59645 32400.00000 0 16362449.334 -9157612.216 17305019.839 10 0 59645 33300.00000 0 15058903.188 -7315973.049 19254855.778 10 0 59645 34200.00000 0 13788018.343 -5194457.324 20831050.780 10 0 59645 35100.00000 0 12603188.906 -2832962.020 22003020.853 10 0 59645 36000.00000 0 11550587.929 -281556.606 22748015.600 10 0 59645 36900.00000 0 10667253.217 2401345.738 23051557.875 10 0 59645 37800.00000 0 9979574.630 5151167.702 22907724.650 10 0 59645 38700.00000 0 9502245.749 7899609.012 22319263.830 10 0 59645 39600.00000 0 9237723.481 10577248.942 21297544.653 10 0 59645 40500.00000 0 9176217.975 13116203.289 19862342.334 10 0 59645 41400.00000 0 9296213.164 15452726.426 18041460.529 10 0 59645 42300.00000 0 9565496.090 17529650.945 15870198.278 10 0 59645 43200.00000 0 9942651.798 19298563.996 13390670.948 10 0 59645 44100.00000 0 10378960.950 20721630.002 10650997.621 10 0 59645 45000.00000 0 10820620.184 21772983.846 7704370.123 10 0 59645 45900.00000 0 11211191.375 22439636.456 4608021.346 10 0 59645 46800.00000 0 11494176.042 22721855.000 1422112.786 10 0 59645 47700.00000 0 11615605.490 22633001.874 -1791436.891 10 0 59645 48600.00000 0 11526536.439 22198839.542 -4970159.119 10 0 59645 49500.00000 0 11185345.600 21456330.838 -8052254.516 10 0 59645 50400.00000 0 10559725.105 20451985.719 -10977799.319 10 0 59645 51300.00000 0 9628293.308 19239824.671 -13689915.074 10 0 59645 52200.00000 0 8381751.696 17879045.132 -16135878.293 10 0 59645 53100.00000 0 6823537.982 16431489.795 -18268147.984 10 0 59645 54000.00000 0 4969946.706 14959023.808 -20045290.932 10 0 59645 54900.00000 0 2849711.140 13520931.491 -21432786.751 10 0 59645 55800.00000 0 503063.056 12171442.122 -22403697.229 10 0 59645 56700.00000 0 -2019691.275 10957488.586 -22939187.323 10 0 59645 57600.00000 0 -4660020.277 9916792.594 -23028888.135 10 0 59645 58500.00000 0 -7353365.074 9076356.278 -22671095.176 10 0 59645 59400.00000 0 -10031595.503 8451422.719 -21872798.498 10 0 59645 60300.00000 0 -12625622.653 8044948.133 -20649544.291 10 0 59645 61200.00000 0 -15068059.789 7847607.035 -19025130.781 10 0 59645 62100.00000 0 -17295821.597 7838329.216 -17031144.317 10 0 59645 63000.00000 0 -19252554.199 7985345.106 -14706344.505 10 0 59645 63900.00000 0 -20890795.207 8247694.760 -12095910.244 10 0 59645 64800.00000 0 -22173774.422 8577136.146 -9250561.122 10 0 59645 65700.00000 0 -23076780.651 8920371.643 -6225571.151 10 0 59645 66600.00000 0 -23588038.161 9221498.205 -3079694.066 10 0 59645 67500.00000 0 -23709056.870 9424577.144 125978.821 10 0 59645 68400.00000 0 -23454442.408 9476214.488 3329205.851 10 0 59645 69300.00000 0 -22851174.799 9328042.362 6467803.927 10 0 59645 70200.00000 0 -21937386.870 8938996.087 9480855.381 10 0 59645 71100.00000 0 -20760694.367 8277290.304 12309889.245 10 0 59645 72000.00000 0 -19376148.490 7322010.221 14900013.800 10 0 59645 72900.00000 0 -17843897.223 6064250.293 17200978.621 10 0 59645 73800.00000 0 -16226653.723 4507751.611 19168145.797 10 0 59645 74700.00000 0 -14587077.939 2669010.404 20763351.838 10 0 59645 75600.00000 0 -12985180.856 576851.983 21955644.202 10 0 59645 76500.00000 0 -11475859.572 -1728513.260 22721878.695 10 0 59645 77400.00000 0 -10106665.767 -4196913.702 23047166.673 10 0 59645 78300.00000 0 -8915900.165 -6770062.257 22925163.809 10 0 59645 79200.00000 0 -7931111.974 -9383748.654 22358194.975 10 0 59645 80100.00000 0 -7168065.399 -11970288.388 21357212.771 10 0 59645 81000.00000 0 -6630215.913 -14461127.730 19941590.172 10 0 59645 81900.00000 0 -6308717.716 -16789497.596 18138750.767 10 0 59645 82800.00000 0 -6182961.783 -18893006.591 15983643.051 10 0 59645 83700.00000 0 -6221621.610 -20716065.877 13518068.229 10 0 59645 84600.00000 0 -6384162.480 -22212045.091 10789873.742 10 0 59645 85500.00000 0 -6622750.501 -23345069.396 7852027.664 10 0 59646 0.00000 0 -6884480.538 -24091382.474 4761591.766 10 0 59646 900.00000 0 -7113828.710 -24440218.605 1578611.337 10 0 59646 1800.00000 0 -7255224.842 -24394146.243 -1635052.244 10 0 59646 2700.00000 0 -7255635.780 -23968869.985 -4816928.722 10 0 59646 3600.00000 0 -7067048.975 -23192498.241 -7905157.784 10 0 59646 4500.00000 0 -6648750.367 -22104308.101 -10839696.686 10 0 59646 5400.00000 0 -5969299.057 -20753059.656 -13563492.283 10 0 59646 6300.00000 0 -5008114.128 -19194931.066 -16023594.107 10 0 59646 7200.00000 0 -3756605.472 -17491161.706 -18172186.356 10 0 59646 8100.00000 0 -2218799.773 -15705502.848 -19967518.533 10 0 59646 9000.00000 0 -411434.169 -13901583.191 -21374716.704 10 0 59646 9900.00000 0 1636487.379 -12140299.946 -22366459.716 10 0 59646 10800.00000 0 3884657.460 -10477344.700 -22923507.653 10 0 59646 11700.00000 0 6282908.984 -8960967.364 -23035072.681 10 0 59646 12600.00000 0 8773079.881 -7630071.272 -22699025.458 10 0 59646 13500.00000 0 11291221.736 -6512718.370 -21921933.521 10 0 59646 14400.00000 0 13770061.071 -5625106.077 -20718931.086 10 0 59646 15300.00000 0 16141611.305 -4971057.648 -19113422.949 10 0 59646 16200.00000 0 18339827.184 -4542046.218 -17136628.199 10 0 59646 17100.00000 0 20303191.608 -4317750.348 -14826972.489 10 0 59646 18000.00000 0 21977127.391 -4267116.657 -12229340.544 10 0 59646 18900.00000 0 23316133.772 -4349883.748 -9394203.283 10 0 59646 19800.00000 0 24285558.876 -4518502.278 -6376636.388 10 0 59646 20700.00000 0 24862934.409 -4720369.362 -3235249.481 10 0 59646 21600.00000 0 25038817.235 -4900282.177 -31046.794 10 0 59646 22500.00000 0 24817103.103 -5003006.465 3173758.370 10 0 59646 23400.00000 0 24214799.906 -4975850.767 6316951.991 10 0 59646 24300.00000 0 23261270.577 -4771137.047 9337526.843 10 0 59646 25200.00000 0 21996977.899 -4348462.781 12176865.537 10 0 59646 26100.00000 0 20471784.352 -3676658.492 14779875.992 10 0 59646 27000.00000 0 18742878.599 -2735357.596 17096057.432 10 0 59646 27900.00000 0 16872415.629 -1516111.741 19080476.520 10 0 59646 28800.00000 0 14924969.328 -23003.980 20694635.055 10 0 59646 29700.00000 0 12964903.770 1727266.925 21907212.981 10 0 59646 30600.00000 0 11053772.574 3705835.734 22694672.895 10 0 59646 31500.00000 0 9247854.359 5872635.948 23041714.812 10 0 59646 32400.00000 0 7595926.365 8177842.084 22941572.822 10 0 59646 33300.00000 0 6137368.313 10563730.350 22396148.050 10 0 59646 34200.00000 0 4900674.846 12966881.511 21415975.319 10 0 59646 35100.00000 0 3902437.844 15320635.590 20020023.828 10 0 59646 36000.00000 0 3146840.440 17557697.308 18235335.190 10 0 59646 36900.00000 0 2625683.313 19612784.605 16096505.145 10 0 59646 37800.00000 0 2318941.615 21425210.440 13645018.235 10 0 59646 38700.00000 0 2195828.663 22941290.527 10928447.552 10 0 59646 39600.00000 0 2216321.263 24116476.382 7999534.540 10 0 59646 40500.00000 0 2333081.900 24917124.371 4915166.273 10 0 59646 41400.00000 0 2493696.158 25321826.335 1735269.880 10 0 59646 42300.00000 0 2643130.216 25322245.631 -1478354.164 10 0 59646 43200.00000 0 2726303.691 24923423.205 -4663236.903 10 0 59646 44100.00000 0 2690668.083 24143540.592 -7757459.924 10 0 59646 45000.00000 0 2488680.692 23013149.751 -10700864.095 10 0 59646 45900.00000 0 2080068.241 21573902.132 -13436223.882 10 0 59646 46800.00000 0 1433783.360 19876830.612 -15910363.826 10 0 59646 47700.00000 0 529570.174 17980256.696 -18075194.962 10 0 59646 48600.00000 0 -640928.197 15947411.146 -19888650.860 10 0 59646 49500.00000 0 -2073567.950 13843867.972 -21315505.078 10 0 59646 50400.00000 0 -3751635.048 11734899.446 -22328054.290 10 0 59646 51300.00000 0 -5646311.697 9682862.713 -22906654.196 10 0 59646 52200.00000 0 -7717660.279 7744726.951 -23040098.208 10 0 59646 53100.00000 0 -9916084.349 5969843.936 -22725831.983 10 0 59646 54000.00000 0 -12184206.489 4398054.338 -21970000.004 10 0 59646 54900.00000 0 -14459085.338 3058207.847 -20787323.579 10 0 59646 55800.00000 0 -16674679.861 1967157.891 -19200812.718 10 0 59646 56700.00000 0 -18764458.625 1129271.688 -17241317.517 10 0 59646 57600.00000 0 -20664045.662 536474.802 -14946927.608 10 0 59646 58500.00000 0 -22313792.779 168827.027 -12362231.230 10 0 59646 59400.00000 0 -23661171.171 -4395.918 -9537448.157 10 0 59646 60300.00000 0 -24662882.605 -23161.598 -6527453.176 10 0 59646 61200.00000 0 -25286601.997 65253.006 -3390709.195 10 0 59646 62100.00000 0 -25512278.670 208505.870 -188130.757 10 0 59646 63000.00000 0 -25332941.979 351649.163 3018099.779 10 0 59646 63900.00000 0 -24754977.810 439698.719 6165740.036 10 0 59646 64800.00000 0 -23797864.659 420204.486 9193695.752 10 0 59646 65700.00000 0 -22493380.648 245712.775 12043205.579 10 0 59646 66600.00000 0 -20884315.009 -123984.181 14658979.421 10 0 59646 67500.00000 0 -19022738.162 -719906.802 16990268.334 10 0 59646 68400.00000 0 -16967902.873 -1562337.256 18991845.512 10 0 59646 69300.00000 0 -14783864.138 -2659724.949 20624879.688 10 0 59646 70200.00000 0 -12536916.919 -4008095.194 21857684.606 10 0 59646 71100.00000 0 -10292958.122 -5590986.798 22666330.586 10 0 59646 72000.00000 0 -8114882.202 -7379922.248 23035106.850 10 0 59646 72900.00000 0 -6060118.073 -9335392.063 22956826.083 10 0 59646 73800.00000 0 -4178409.000 -11408313.588 22432965.495 10 0 59646 74700.00000 0 -2509927.099 -13541904.605 21473641.639 10 0 59646 75600.00000 0 -1083800.056 -15673894.995 20097419.155 10 0 59646 76500.00000 0 82889.341 -17738985.366 18330956.621 10 0 59646 77400.00000 0 985589.815 -19671450.976 16208495.692 10 0 59646 78300.00000 0 1632234.753 -21407782.969 13771202.667 10 0 59646 79200.00000 0 2042664.501 -22889256.932 11066374.472 10 0 59646 80100.00000 0 2247542.656 -24064321.389 8146523.891 10 0 59646 81000.00000 0 2286812.552 -24890706.016 5068361.381 10 0 59646 81900.00000 0 2207759.673 -25337160.809 1891693.010 10 0 59646 82800.00000 0 2062762.447 -25384752.650 -1321743.829 10 0 59646 83700.00000 0 1906827.301 -25027664.279 -4509484.006 10 0 59646 84600.00000 0 1795013.147 -24273461.550 -7609553.603 10 0 59646 85500.00000 0 1779855.225 -23142817.350 -10561679.749 10 0 59647 0.00000 0 1908898.347 -21668703.640 -13308466.948 10 0 59647 900.00000 0 2222445.035 -19895084.593 -15796517.883 10 0 59647 1800.00000 0 2751614.541 -17875167.773 -17977472.722 10 0 59647 2700.00000 0 3516795.949 -15669284.107 -19808951.480 10 0 59647 3600.00000 0 4526561.419 -13342487.446 -21255377.340 10 0 59647 4500.00000 0 5777086.234 -10961973.476 -22288666.611 10 0 59647 5400.00000 0 7252100.920 -8594425.844 -22888772.033 10 0 59647 6300.00000 0 8923378.242 -6303399.982 -23044069.293 10 0 59647 7200.00000 0 10751735.425 -4146853.355 -22751579.647 10 0 59647 8100.00000 0 12688510.321 -2174924.375 -22017024.741 10 0 59647 9000.00000 0 14677450.501 -428051.630 -20854712.781 10 0 59647 9900.00000 0 16656936.776 1064489.143 -19287258.413 10 0 59647 10800.00000 0 18562448.753 2285570.622 -17345141.764 10 0 59647 11700.00000 0 20329169.784 3230682.168 -15066115.048 10 0 59647 12600.00000 0 21894622.589 3907862.612 -12494468.185 10 0 59647 13500.00000 0 23201225.545 4337101.873 -9680167.518 10 0 59647 14400.00000 0 24198662.722 4549237.909 -6677884.236 10 0 59647 15300.00000 0 24845968.408 4584396.727 -3545931.456 10 0 59647 16200.00000 0 25113238.767 4490042.370 -345130.681 10 0 59647 17100.00000 0 24982898.884 4318720.208 2862370.188 10 0 59647 18000.00000 0 24450472.024 4125589.691 6014303.976 10 0 59647 18900.00000 0 23524818.884 3965851.546 9049492.854 10 0 59647 19800.00000 0 22227836.843 3892178.755 11909034.799 10 0 59647 20700.00000 0 20593631.827 3952260.292 14537444.715 10 0 59647 21600.00000 0 18667197.453 4186561.750 16883728.174 10 0 59647 22500.00000 0 16502656.545 4626397.716 18902367.241 10 0 59647 23400.00000 0 14161138.328 5292397.504 20554199.551 10 0 59647 24300.00000 0 11708379.442 6193429.312 21807174.228 10 0 59647 25200.00000 0 9212148.225 7326028.690 22636970.498 10 0 59647 26100.00000 0 6739598.862 8674356.047 23027467.554 10 0 59647 27000.00000 0 4354664.621 10210685.996 22971056.988 10 0 59647 27900.00000 0 2115597.642 11896409.203 22468791.930 10 0 59647 28800.00000 0 72756.686 13683506.006 21530370.010 10 0 59647 29700.00000 0 -1733266.119 15516431.477 20173950.162 10 0 59647 30600.00000 0 -3273102.511 17334334.311 18425806.317 10 0 59647 31500.00000 0 -4529589.341 19073517.758 16319824.016 10 0 59647 32400.00000 0 -5498233.710 20670040.428 13896848.935 10 0 59647 33300.00000 0 -6187143.296 22062348.603 11203899.172 10 0 59647 34200.00000 0 -6616425.418 23193829.864 8293255.988 10 0 59647 35100.00000 0 -6817080.819 24015180.776 5221450.207 10 0 59647 36000.00000 0 -6829439.423 24486488.836 2048163.751 10 0 59647 36900.00000 0 -6701204.737 24578940.510 -1164932.179 10 0 59647 37800.00000 0 -6485190.315 24276082.877 -4355379.349 10 0 59647 38700.00000 0 -6236844.856 23574585.014 -7461151.288 10 0 59647 39600.00000 0 -6011671.527 22484466.414 -10421864.155 10 0 59647 40500.00000 0 -5862651.676 21028782.262 -13179955.495 10 0 59647 41400.00000 0 -5837782.894 19242778.314 -15681807.388 10 0 59647 42300.00000 0 -5977836.414 17172550.576 -17878791.591 10 0 59647 43200.00000 0 -6314429.483 14873265.777 -19728216.195 10 0 59647 44100.00000 0 -6868494.816 12407016.978 -21194155.338 10 0 59647 45000.00000 0 -7649212.379 9840403.910 -22248146.006 10 0 59647 45900.00000 0 -8653449.103 7241938.862 -22869738.722 10 0 59647 46800.00000 0 -9865730.694 4679385.996 -23046891.878 10 0 59647 47700.00000 0 -11258747.272 2217144.544 -22776202.422 10 0 59647 48600.00000 0 -12794372.155 -86215.777 -22062968.866 10 0 59647 49500.00000 0 -14425151.614 -2180165.417 -20921085.613 10 0 59647 50400.00000 0 -16096203.606 -4024080.573 -19372770.824 10 0 59647 51300.00000 0 -17747446.395 -5588687.211 -17448133.121 10 0 59647 52200.00000 0 -19316064.039 -6857024.597 -15184585.402 10 0 59647 53100.00000 0 -20739105.663 -7824889.484 -12626117.068 10 0 59647 54000.00000 0 -21956109.731 -8500743.868 -9822438.600 10 0 59647 54900.00000 0 -22911643.297 -8905091.632 -6828014.994 10 0 59647 55800.00000 0 -23557649.616 -9069351.691 -3701006.878 10 0 59647 56700.00000 0 -23855505.484 -9034276.351 -502139.944 10 0 59647 57600.00000 0 -23777701.712 -8847982.748 2706475.178 10 0 59647 58500.00000 0 -23309076.015 -8563681.413 5862549.341 10 0 59647 59400.00000 0 -22447546.321 -8237198.695 8904823.962 10 0 59647 60300.00000 0 -21204313.541 -7924398.401 11774259.098 10 0 59647 61200.00000 0 -19603525.068 -7678611.978 14415177.289 10 0 59647 62100.00000 0 -17681412.856 -7548186.133 16776341.073 10 0 59647 63000.00000 0 -15484941.766 -7574251.617 18811943.556 10 0 59647 63900.00000 0 -13070024.299 -7788807.398 20482493.107 10 0 59647 64800.00000 0 -10499375.594 -8213201.176 21755575.662 10 0 59647 65700.00000 0 -7840097.391 -8857070.446 22606480.357 10 0 59647 66600.00000 0 -5161090.738 -9717789.050 23018676.926 10 0 59647 67500.00000 0 -2530404.069 -10780443.086 22984136.020 10 0 59647 68400.00000 0 -12625.827 -12018337.995 22503486.466 10 0 59647 69300.00000 0 2333570.988 -13394016.516 21586006.406 10 0 59647 70200.00000 0 4457631.379 -14860745.926 20249448.205 10 0 59647 71100.00000 0 6318977.401 -16364413.339 18519700.009 10 0 59647 72000.00000 0 7888447.127 -17845750.604 16430289.843 10 0 59647 72900.00000 0 9149254.389 -19242796.364 14021741.102 10 0 59647 73800.00000 0 10097429.975 -20493492.556 11340791.134 10 0 59647 74700.00000 0 10741726.423 -21538306.567 8439487.519 10 0 59647 75600.00000 0 11102991.175 -22322768.816 5374179.077 10 0 59647 76500.00000 0 11213035.092 -22799818.676 2204421.042 10 0 59647 77400.00000 0 11113044.702 -22931859.351 -1008184.222 10 0 59647 78300.00000 0 10851605.961 -22692434.433 -4201188.079 10 0 59647 79200.00000 0 10482423.828 -22067454.572 -7312514.205 10 0 59647 80100.00000 0 10061834.929 -21055921.735 -10281670.447 10 0 59647 81000.00000 0 9646219.392 -19670119.695 -13050929.742 10 0 59647 81900.00000 0 9289422.210 -17935261.974 -15566456.538 10 0 59647 82800.00000 0 9040293.961 -15888611.419 -17779356.255 10 0 59647 83700.00000 0 8940455.519 -13578107.863 -19646627.196 10 0 59647 84600.00000 0 9022381.769 -11060560.872 -21131996.341 10 0 59647 85500.00000 0 9307885.612 -8399482.907 -22206622.928 99